Wind_Speed
16 16 15 13 14 14 13 13 13 12 12 14 16 15 14 14 13 15 16 15 15 14 13 13 12 12 12 12 13 13 13 13 12 13 14 14 14 14 13 12 12 12 12 12
16 15 14 14 15 16 16 15 14 13 14 16 17 16 14 13 14 15 17 16 15 14 14 13 13 13 13 13 13 13 13 12 12 11 13 14 14 13 12 12 11 12 12 12
14 12 14 16 15 16 16 15 15 16 15 16 16 17 16 14 14 15 15 16 15 15 14 13 13 13 13 13 13 13 13 13 13 13 12 12 12 12 12 11 11 11 11 11
16 15 15 17 17 16 16 15 15 16 15 16 17 18 17 14 14 14 15 15 15 15 14 13 13 13 12 13 13 13 13 13 13 14 12 11 11 11 12 11 11 11 11 11
16 17 17 17 16 16 17 15 15 16 16 17 17 17 17 14 14 14 14 14 14 15 14 13 13 13 12 12 13 13 13 13 13 13 12 12 11 11 10 10 9 10 11 11
17 17 17 17 16 16 16 15 16 15 15 17 15 16 16 14 14 14 15 14 14 13 13 13 13 12 11 12 12 12 12 13 13 12 12 12 11 11 10 10 10 9 10 10
17 17 16 16 17 17 16 15 15 16 16 16 16 17 16 15 15 14 15 15 14 12 12 12 11 10 10 11 11 11 12 12 12 11 11 11 11 11 10 10 10 9 9 9
16 17 17 18 18 16 15 15 16 17 16 16 15 15 14 11 14 15 15 15 15 13 12 11 11 10 10 10 11 11 12 12 12 11 11 10 10 10 10 9 10 10 9 9
15 16 18 20 18 17 16 16 15 18 17 17 15 11 12 10 13 14 13 14 14 13 12 12 11 10 10 10 10 11 12 12 12 11 11 10 10 10 10 9 10 10 10 9
19 19 19 19 17 16 17 16 16 18 18 17 14 14 14 11 11 12 13 14 15 13 13 13 11 11 10 10 11 11 11 11 11 11 11 11 10 10 10 10 10 10 10 10
21 20 18 19 18 15 16 17 18 18 18 17 17 16 14 12 11 13 14 14 14 13 12 11 11 10 10 10 10 11 11 11 11 10 10 11 11 11 10 10 10 10 11 10
23 21 21 21 19 18 18 19 19 20 20 19 18 18 14 12 12 12 14 15 14 12 11 11 11 11 10 11 11 11 10 10 10 10 10 10 11 11 11 11 11 11 11 11
24 24 22 21 21 21 20 19 19 19 20 19 19 18 17 13 13 11 14 15 14 13 11 10 11 11 11 11 11 11 10 10 10 10 9 9 9 10 11 11 11 11 12 11
27 26 24 22 22 22 21 21 21 20 21 19 20 21 19 16 15 14 16 15 14 14 12 12 11 11 11 11 11 11 11 10 10 9 9 9 9 10 10 10 11 11 11 11
27 27 26 25 23 21 20 22 21 21 20 19 20 22 21 18 16 15 14 15 16 15 14 13 13 12 11 11 11 11 11 10 10 10 10 10 10 10 10 11 10 10 11 11
28 28 27 27 25 24 23 22 21 21 19 18 21 24 22 19 17 15 15 16 17 17 15 14 14 13 13 12 11 11 11 10 10 11 10 10 10 10 11 11 11 11 11 10
27 27 27 26 24 23 24 21 21 20 21 21 23 25 24 20 18 17 18 19 18 18 17 16 15 14 14 13 13 12 12 11 11 11 11 11 11 11 11 11 11 12 12 11
27 27 27 26 25 24 21 20 19 21 23 23 24 23 24 23 21 20 21 20 18 19 18 17 16 16 16 15 15 13 12 12 12 12 12 12 12 12 12 13 13 13 12 12
27 27 26 25 24 24 21 20 21 23 23 24 24 23 23 23 21 21 22 21 20 20 19 19 18 18 18 17 16 15 14 13 12 12 12 12 12 13 14 14 14 14 13 13
27 26 25 25 24 22 22 23 23 23 23 24 23 22 22 23 23 22 22 22 21 21 21 20 19 19 18 18 18 17 16 15 14 14 14 14 14 14 14 15 15 14 14 14
25 25 26 26 25 24 24 24 24 24 24 24 23 22 21 23 24 23 22 22 22 21 21 20 21 20 19 19 19 19 18 17 17 16 16 16 16 16 15 15 15 15 15 16
25 26 26 27 27 25 26 26 26 25 25 25 24 23 23 23 23 23 22 22 22 21 21 21 21 21 21 21 20 20 20 19 19 18 18 18 17 17 17 17 17 17 17 17
27 26 25 26 26 27 27 27 26 25 24 24 24 24 23 23 24 23 23 22 22 22 21 20 20 21 22 22 22 22 22 21 20 20 19 19 19 19 19 19 19 19 19 19
25 26 26 27 27 27 26 26 26 26 25 24 23 23 23 23 24 24 23 23 22 21 21 20 21 21 22 22 23 23 23 23 22 22 21 21 20 20 20 21 21 21 21 22
23 24 25 25 27 27 27 27 26 26 25 25 24 23 23 23 23 23 23 23 23 22 22 22 22 22 23 23 23 24 24 24 23 23 23 23 22 22 22 22 23 23 23 24
23 23 24 24 25 25 26 26 25 25 25 24 24 23 23 23 22 23 23 23 23 22 22 22 22 22 23 23 23 24 24 24 24 24 24 24 23 23 24 25 25 25 26 26
Wind_Direction
236 234 232 232 236 240 241 248 255 256 263 266 274 280 278 274 279 282 282 278 273 269 267 266 267 268 265 265 261 259 253 247 246 238 233 234 234 233 234 233 232 233 236 237
231 232 231 230 231 238 239 243 254 256 256 257 266 272 273 271 274 278 281 280 272 266 264 265 265 266 265 263 260 258 247 247 247 240 236 234 232 232 232 232 230 231 234 234
230 230 231 229 231 236 240 243 249 254 253 257 265 269 265 264 267 278 280 280 273 269 264 264 265 267 263 261 259 254 246 246 243 241 240 236 233 230 231 233 231 227 230 229
226 221 230 234 233 235 239 244 249 254 254 256 259 270 272 273 278 276 282 279 276 269 263 265 264 264 264 260 256 251 246 243 241 239 237 233 232 230 229 232 230 227 227 225
221 220 225 238 237 235 237 242 247 250 252 253 257 265 274 279 276 279 282 276 275 271 265 264 261 260 260 256 250 244 244 240 238 237 235 228 227 227 227 228 228 227 223 218
217 224 226 235 240 236 235 240 248 252 250 251 255 260 268 271 272 281 281 275 275 268 263 261 259 259 256 250 244 239 239 239 236 233 227 225 225 228 227 227 228 226 219 217
217 220 229 232 233 238 235 235 245 253 253 255 250 246 254 266 273 277 279 282 278 268 260 260 259 255 252 245 237 236 235 235 232 228 224 224 227 229 231 229 221 219 215 213
224 223 227 235 232 230 234 232 241 253 264 260 250 237 244 258 268 275 273 273 274 264 257 258 257 252 248 241 233 231 233 232 229 228 223 224 229 228 224 221 215 217 215 211
223 226 228 236 238 227 232 233 242 256 263 270 268 266 252 248 264 275 271 269 266 263 256 251 252 248 243 237 228 227 227 227 226 223 221 222 222 217 217 217 214 216 214 212
211 224 227 229 233 229 232 235 241 245 252 259 260 255 243 229 258 270 270 270 266 254 253 245 243 244 241 234 226 223 222 223 220 218 222 220 217 217 219 221 218 218 213 210
212 219 223 226 231 230 235 231 234 240 246 252 264 266 253 243 255 262 269 268 267 260 253 237 235 239 236 228 219 218 218 215 213 216 219 219 217 218 222 220 217 216 214 214
219 221 224 224 227 231 232 233 233 239 245 246 258 269 264 257 256 262 268 265 260 254 244 231 234 235 232 224 219 214 212 211 213 217 221 222 221 219 221 219 218 217 213 212
221 221 222 225 223 230 232 235 235 242 248 252 259 264 258 252 247 252 262 263 257 252 249 238 235 234 231 224 219 213 210 213 216 218 220 219 217 218 219 217 215 213 214 218
223 223 220 226 227 226 227 231 234 238 246 251 257 258 259 251 249 250 254 251 249 248 247 241 234 230 225 219 217 215 216 216 217 217 218 218 218 221 222 217 213 215 218 222
225 228 226 226 232 236 235 233 237 239 240 246 255 259 262 254 253 248 246 247 250 249 248 242 237 234 230 225 223 223 221 223 222 221 220 220 222 224 223 220 220 222 223 227
227 228 229 228 230 234 235 238 240 242 242 247 254 256 253 252 249 248 250 253 252 249 247 241 238 237 234 231 229 227 226 225 223 222 220 221 222 224 223 222 224 224 228 234
230 230 229 232 236 238 239 238 237 242 246 246 249 254 254 257 253 253 249 249 247 246 244 242 236 235 234 232 231 230 229 228 228 226 224 225 227 227 224 224 228 233 237 241
232 233 232 231 232 236 238 241 235 238 241 244 246 251 252 252 250 247 245 243 245 245 244 242 237 234 234 233 231 230 230 230 232 231 229 226 227 227 228 231 235 238 242 246
230 233 233 234 235 238 238 242 242 242 241 242 244 248 249 246 244 245 245 245 246 244 242 239 236 236 233 229 229 231 232 232 231 231 230 230 231 231 233 236 240 243 247 251
231 232 233 235 238 240 238 239 242 247 249 247 247 247 244 244 243 243 244 243 241 241 240 239 236 236 232 229 231 234 235 234 232 233 235 234 236 237 238 239 243 247 251 254
233 235 234 235 237 240 240 238 238 243 247 249 249 247 246 243 242 242 241 239 237 240 240 238 236 234 234 233 234 235 236 236 236 237 239 239 242 242 244 245 249 252 254 257
236 238 238 236 238 237 239 239 240 243 246 249 249 246 245 242 240 238 238 236 236 239 238 235 234 234 235 236 237 237 238 238 239 240 242 242 245 246 249 251 253 255 258 260
231 233 233 236 237 239 239 241 244 242 244 247 246 244 243 240 240 239 237 235 236 236 235 233 232 235 237 238 239 240 242 241 242 243 244 245 248 250 251 253 256 259 262 264
234 235 237 238 240 242 241 243 245 244 244 244 245 242 241 241 237 236 236 234 233 236 236 235 237 238 240 241 241 240 242 244 244 244 245 247 249 253 255 258 260 262 264 268
231 234 236 239 242 245 245 243 245 244 245 245 244 240 239 236 236 233 233 234 234 236 236 237 239 241 242 242 242 242 243 245 246 244 245 247 250 253 256 259 261 264 266 269
235 239 242 242 242 244 243 243 244 245 245 242 240 240 238 236 236 235 236 235 234 237 238 238 240 241 241 243 244 244 245 246 246 246 247 249 253 257 260 263 265 267 269 270
Height
5826 5828 5830 5833 5836 5838 5839 5841 5842 5843 5843 5843 5843 5843 5842 5839 5839 5840 5839 5839 5838 5839 5839 5840 5841 5841 5842 5843 5843 5844 5845 5846 5848 5849 5851 5853 5854 5856 5859 5860 5862 5863 5865 5867
5822 5825 5828 5830 5832 5834 5836 5837 5839 5840 5840 5840 5840 5839 5839 5837 5836 5837 5836 5836 5835 5836 5837 5837 5838 5839 5839 5840 5841 5841 5843 5844 5845 5847 5849 5851 5852 5854 5857 5858 5860 5862 5863 5865
5819 5823 5824 5827 5829 5831 5833 5835 5836 5837 5837 5837 5837 5835 5835 5834 5834 5833 5833 5832 5832 5832 5833 5835 5835 5836 5837 5837 5838 5839 5841 5842 5843 5845 5847 5849 5851 5853 5855 5856 5858 5860 5861 5863
5816 5819 5821 5823 5825 5828 5830 5831 5833 5833 5833 5834 5833 5831 5830 5830 5830 5830 5830 5830 5829 5829 5830 5831 5832 5833 5834 5835 5836 5837 5838 5839 5841 5843 5845 5847 5849 5851 5853 5854 5856 5858 5859 5861
5812 5815 5818 5820 5822 5824 5826 5828 5829 5829 5829 5830 5829 5829 5828 5827 5827 5826 5826 5826 5826 5826 5827 5828 5829 5830 5831 5832 5833 5834 5836 5837 5839 5841 5843 5845 5847 5849 5851 5852 5854 5856 5858 5859
5809 5812 5814 5817 5819 5820 5822 5824 5825 5825 5825 5826 5826 5826 5825 5824 5824 5823 5822 5822 5823 5824 5825 5826 5826 5827 5828 5829 5830 5832 5833 5835 5836 5838 5841 5843 5845 5848 5849 5851 5852 5854 5856 5858
5805 5808 5811 5813 5815 5817 5819 5821 5822 5822 5821 5821 5822 5822 5822 5822 5822 5821 5819 5819 5819 5821 5822 5823 5824 5825 5825 5827 5828 5829 5831 5833 5834 5836 5838 5841 5843 5846 5847 5849 5851 5853 5855 5857
5802 5805 5808 5809 5811 5813 5815 5817 5818 5819 5818 5816 5816 5816 5817 5818 5818 5818 5818 5818 5817 5818 5819 5821 5821 5822 5823 5824 5826 5827 5829 5831 5833 5835 5837 5839 5841 5843 5845 5847 5849 5852 5853 5855
5800 5803 5805 5806 5807 5810 5811 5813 5815 5816 5814 5813 5812 5813 5813 5812 5814 5814 5815 5816 5815 5815 5816 5817 5819 5820 5821 5822 5824 5825 5827 5829 5831 5833 5835 5837 5839 5842 5844 5846 5848 5850 5852 5854
5795 5798 5800 5802 5804 5806 5808 5810 5811 5812 5811 5810 5810 5809 5808 5809 5810 5811 5812 5812 5811 5812 5813 5814 5816 5817 5818 5820 5822 5823 5825 5828 5829 5831 5833 5835 5838 5840 5842 5844 5846 5848 5850 5852
5790 5793 5796 5798 5799 5802 5804 5806 5807 5807 5807 5807 5806 5807 5804 5804 5807 5808 5809 5809 5808 5808 5809 5811 5813 5815 5816 5818 5820 5822 5824 5826 5828 5830 5832 5834 5836 5838 5840 5842 5844 5846 5848 5851
5785 5789 5791 5793 5796 5798 5800 5801 5802 5803 5803 5803 5804 5806 5802 5803 5804 5805 5806 5805 5805 5805 5807 5809 5811 5813 5814 5816 5819 5820 5822 5824 5826 5828 5830 5832 5834 5836 5838 5840 5842 5844 5846 5849
5780 5783 5786 5788 5792 5793 5795 5796 5798 5799 5800 5800 5801 5802 5798 5799 5800 5800 5802 5802 5803 5804 5805 5807 5810 5811 5813 5815 5817 5819 5821 5823 5825 5827 5829 5830 5832 5834 5836 5838 5840 5842 5844 5847
5775 5777 5781 5784 5785 5786 5788 5791 5792 5794 5796 5797 5796 5795 5795 5794 5795 5796 5798 5799 5801 5803 5804 5807 5808 5810 5812 5814 5816 5818 5820 5822 5824 5825 5827 5829 5831 5832 5834 5836 5838 5840 5843 5845
5769 5772 5775 5777 5779 5780 5783 5785 5787 5788 5790 5791 5793 5792 5791 5789 5790 5790 5793 5797 5799 5801 5803 5804 5807 5809 5811 5813 5815 5817 5818 5820 5822 5824 5826 5827 5829 5831 5833 5835 5836 5838 5840 5842
5763 5766 5769 5771 5774 5775 5777 5780 5782 5784 5785 5787 5788 5788 5787 5785 5787 5788 5791 5794 5797 5799 5801 5803 5805 5807 5809 5811 5813 5815 5817 5819 5820 5822 5824 5826 5827 5829 5831 5833 5834 5836 5838 5840
5757 5760 5763 5766 5768 5770 5772 5775 5777 5779 5781 5783 5783 5783 5783 5783 5783 5786 5789 5791 5794 5796 5799 5801 5803 5805 5807 5809 5811 5813 5815 5817 5818 5820 5822 5824 5825 5827 5829 5831 5832 5834 5836 5837
5751 5754 5758 5761 5764 5765 5770 5769 5770 5773 5775 5777 5777 5778 5779 5780 5781 5782 5785 5787 5790 5793 5796 5798 5800 5802 5804 5807 5809 5811 5813 5815 5816 5818 5820 5821 5823 5825 5826 5828 5830 5831 5833 5834
5745 5749 5752 5755 5757 5759 5763 5764 5765 5768 5769 5770 5771 5773 5774 5776 5778 5779 5781 5784 5787 5790 5792 5794 5797 5799 5801 5803 5806 5808 5810 5812 5814 5816 5817 5819 5821 5822 5824 5825 5827 5828 5829 5831
5739 5742 5747 5749 5751 5754 5758 5759 5760 5762 5762 5763 5766 5768 5769 5772 5774 5776 5778 5780 5783 5785 5788 5790 5793 5795 5798 5800 5803 5805 5807 5810 5811 5813 5814 5816 5818 5819 5821 5822 5823 5825 5826 5827
5733 5736 5740 5743 5745 5748 5750 5752 5755 5758 5759 5759 5761 5763 5765 5767 5769 5771 5773 5776 5779 5781 5783 5785 5788 5791 5794 5797 5799 5801 5804 5806 5808 5809 5811 5813 5815 5816 5817 5819 5820 5821 5822 5823
5728 5731 5734 5737 5739 5743 5743 5745 5748 5750 5752 5754 5755 5758 5760 5762 5763 5765 5768 5771 5774 5777 5779 5781 5784 5787 5790 5792 5795 5797 5800 5802 5803 5806 5807 5809 5811 5812 5814 5815 5816 5817 5818 5819
5722 5725 5727 5731 5735 5735 5737 5739 5741 5744 5746 5748 5750 5752 5754 5756 5759 5761 5764 5767 5769 5772 5774 5776 5779 5782 5785 5788 5790 5793 5795 5797 5799 5801 5803 5805 5806 5808 5809 5811 5812 5813 5813 5814
5715 5718 5721 5724 5727 5729 5731 5733 5735 5738 5740 5742 5744 5746 5748 5751 5753 5756 5759 5762 5765 5767 5770 5772 5775 5777 5780 5782 5785 5787 5790 5792 5794 5796 5798 5800 5801 5803 5804 5805 5806 5807 5808 5808
5709 5712 5714 5717 5720 5723 5725 5727 5729 5732 5734 5737 5738 5741 5743 5746 5748 5751 5754 5757 5760 5763 5765 5767 5770 5772 5775 5777 5779 5782 5784 5786 5788 5790 5792 5794 5795 5797 5798 5799 5800 5801 5801 5802
5704 5707 5710 5712 5714 5717 5719 5721 5724 5726 5729 5731 5733 5736 5738 5741 5744 5747 5749 5751 5754 5757 5760 5762 5764 5767 5769 5771 5774 5776 5778 5780 5782 5784 5785 5787 5789 5790 5791 5792 5793 5793 5794 5794